Clearfield, PA

2:25 PM EDT on May 26, 2017 (GMT -0400)
Clearfield-Lawrence

Weather History for KFIG - October, 2012

Change the Weather History Date:

Tuesday, October 9, 2012

  Actual Average (KDUJ) Record (KDUJ)
Temperature  
Mean Temperature 50 °F -  
Max Temperature 62 °F 60 °F 77 °F (2007)
Min Temperature 39 °F 42 °F 28 °F (1987)
Degree Days  
Heating Degree Days 14    
Moisture  
Dew Point 38 °F    
Average Humidity 71    
Maximum Humidity 96    
Minimum Humidity 39    
Precipitation  
Precipitation 0.00 in - - ()
Sea Level Pressure  
Sea Level Pressure 30.15 in    
Wind  
Wind Speed 2 mph (NNW)    
Max Wind Speed 7 mph    
Max Gust Speed -    
Visibility 10 miles    
Events      
Averages and records for this station are not official NWS values.
T = Trace of Precipitation, MM = Missing Value Source: NWS Daily Summary

Daily Weather History Graph

Daily Weather History Graph

Search for Another Location

Airport or City:

Trip Planner

Search our weather history database for the weather conditions in past years. The results will help you decide how hot, cold, wet, or windy it might be!

Date:

Astronomy

Oct. 09, 2012 Rise Set
Actual Time 7:19 AM EDT 6:41 PM EDT
Civil Twilight 6:51 AM EDT 7:09 PM EDT
Nautical Twilight 6:19 AM EDT 7:41 PM EDT
Astronomical Twilight 5:47 AM EDT 8:12 PM EDT
Moon 12:50 AM EDT (10/9) 3:10 PM EDT (10/9)
Length of Visible Light 12h 17m
Length of Day
11h 22m
Last Quarter, 37% of the Moon is Illuminated
Oct 9
Last Quarter
Oct 15
New
Oct 21
First Quarter
Oct 29
Full
Nov 6
Last Quarter

Hourly Weather History & Observations

Time (EDT) Temp. Windchill Dew Point Humidity Pressure Visibility Wind Dir Wind Speed Gust Speed Precip Events Conditions
12:54 AM 39.9 °F - 37.9 °F 93% 30.23 in 10.0 mi Calm Calm - N/A   Overcast
1:54 AM 39.9 °F 37.8 °F 37.9 °F 93% 30.23 in 10.0 mi North 3.5 mph - N/A   Overcast
2:54 AM 39.0 °F 35.7 °F 37.0 °F 93% 30.22 in 10.0 mi North 4.6 mph - N/A   Overcast
3:54 AM 39.0 °F 36.8 °F 37.9 °F 96% 30.21 in 10.0 mi North 3.5 mph - N/A   Overcast
4:54 AM 39.9 °F - 37.9 °F 93% 30.21 in 10.0 mi Calm Calm - N/A   Overcast
5:54 AM 41.0 °F - 37.9 °F 89% 30.22 in 10.0 mi Calm Calm - N/A   Overcast
6:54 AM 41.0 °F - 37.9 °F 89% 30.23 in 10.0 mi Calm Calm - N/A   Overcast
7:54 AM 41.0 °F - 39.0 °F 93% 30.23 in 10.0 mi Calm Calm - N/A   Overcast
8:54 AM 43.0 °F - 39.0 °F 86% 30.24 in 10.0 mi Calm Calm - N/A   Overcast
9:54 AM 46.0 °F 44.8 °F 37.0 °F 71% 30.22 in 10.0 mi East 3.5 mph - N/A   Mostly Cloudy
10:54 AM 51.1 °F - 35.1 °F 54% 30.20 in 10.0 mi Variable 3.5 mph - N/A   Clear
11:54 AM 54.0 °F - 35.1 °F 49% 30.19 in 10.0 mi Variable 4.6 mph - N/A   Clear
12:54 PM 57.0 °F - 36.0 °F 45% 30.16 in 10.0 mi Variable 6.9 mph - N/A   Clear
1:54 PM 59.0 °F - 36.0 °F 42% 30.12 in 10.0 mi SW 5.8 mph - N/A   Clear
2:54 PM 60.1 °F - 36.0 °F 41% 30.09 in 10.0 mi SW 6.9 mph - N/A   Clear
3:54 PM 62.1 °F - 37.0 °F 39% 30.08 in 10.0 mi Variable 3.5 mph - N/A   Partly Cloudy
4:54 PM 62.1 °F - 37.9 °F 41% 30.07 in 10.0 mi South 5.8 mph - N/A   Scattered Clouds
5:54 PM 57.0 °F - 37.9 °F 49% 30.07 in 10.0 mi SSE 5.8 mph - N/A   Clear
6:54 PM 53.1 °F - 39.0 °F 59% 30.07 in 10.0 mi Calm Calm - N/A   Clear
7:54 PM 52.0 °F - 39.0 °F 61% 30.07 in 10.0 mi Calm Calm - N/A   Clear
8:54 PM 46.0 °F - 39.9 °F 79% 30.07 in 10.0 mi Calm Calm - N/A   Clear
9:54 PM 45.0 °F - 39.0 °F 80% 30.08 in 10.0 mi Calm Calm - N/A   Clear
10:54 PM 43.0 °F - 39.0 °F 86% 30.06 in 10.0 mi Calm Calm - N/A   Clear
11:54 PM 39.9 °F 37.8 °F 37.9 °F 93% 30.06 in 10.0 mi North 3.5 mph - N/A   Clear